Regional Weather Roundup
Issued by NWS Charleston, WV

Home | Current Version | Previous Version | Graphics & Text | Print | Product List | Glossary On
Versions: 1 2 3 4 5 6 7 8 9 10 11 12 13 14 15 16 17 18 19 20 21 22 23 24 25 26 27 28 29 30 31 32 33 34 35 36 37 38 39 40 41 42 43 44 45 46 47 48 49 50
000
ASUS41 KRLX 300210
RWRRLX
West Virginia Regional Weather Roundup
National Weather Service Charleston WV
1000 PM EDT SUN MAR 29 2015

Note: "fair" indicates few or no clouds below 12,000 feet with no
significant weather and/or obstructions to visibility.

WVZ003-300300-
Northern Panhandle of West Virginia

CITY           SKY/WX    TMP DP  RH WIND       PRES   REMARKS
WHEELING       CLOUDY    43   7  22 SW12G21   29.98R
$$

WVZ009-300300-
Northwest West Virginia

CITY           SKY/WX    TMP DP  RH WIND       PRES   REMARKS
PARKERSBURG    CLOUDY    46   7  20 SE3       30.02F
$$

WVZ006-300300-
Western West Virginia

CITY           SKY/WX    TMP DP  RH WIND       PRES   REMARKS
HUNTINGTON     MOCLDY    50   6  16 S5        30.01R
$$

WVZ015-300300-
West Central West Virginia

CITY           SKY/WX    TMP DP  RH WIND       PRES   REMARKS
CHARLESTON     CLOUDY    52   4  14 SW8       29.99R
$$

WVZ022-031-300300-
North Central West Virginia

CITY           SKY/WX    TMP DP  RH WIND       PRES   REMARKS
CLARKSBURG     CLOUDY    43  10  26 CALM      30.00S
MORGANTOWN     CLOUDY    44   6  21 VRB3      30.01R
$$

WVZ025-035-042-045-300300-
Southern West Virginia

CITY           SKY/WX    TMP DP  RH WIND       PRES   REMARKS
BECKLEY        CLOUDY    46   4  17 S12       30.02F
LOGAN          CLOUDY    50   3  14 S8G23     29.98R
BLUEFIELD      PTCLDY    45   8  22 S10G18    30.05F
LEWISBURG      MOCLDY    44  10  25 S7        30.06F
$$

WVZ047-300300-
Northern Mountains of West Virginia

CITY           SKY/WX    TMP DP  RH WIND       PRES   REMARKS
ELKINS         CLOUDY    43  11  27 CALM      30.00F
$$

WVZ052-300300-
Eastern Panhandle of West Virginia

CITY           SKY/WX    TMP DP  RH WIND       PRES   REMARKS
MARTINSBURG    CLOUDY    43   9  24 S10       30.08F
PETERSBURG     MOCLDY    43   9  24 SE3       30.04F
$$


USA.gov is the U.S. government's official web portal to all federal, state and local government web resources and services.